Luxor, Egypt

12:41 PM EET on May 26, 2018 (GMT +0200)
Luxor

Weather History for HELX - November, 2012

Change the Weather History Date:

Wednesday, November 14, 2012

  Actual Average Record
Temperature  
Mean Temperature 68 °F -  
Max Temperature 82 °F 77 °F 93 °F (2016)
Min Temperature 55 °F 50 °F 53 °F (1998)
Cooling Degree Days 4    
Growing Degree Days 18 (Base 50)    
Moisture  
Dew Point 54 °F    
Average Humidity 57    
Maximum Humidity 72    
Minimum Humidity 35    
Precipitation  
Precipitation 0.00 in 0.00 in - ()
Sea Level Pressure  
Sea Level Pressure 29.97 in    
Wind  
Wind Speed 1 mph ()    
Max Wind Speed 5 mph    
Max Gust Speed -    
Visibility 6.0 miles    
Events      
Averages and records for this station are not official NWS values.
T = Trace of Precipitation, MM = Missing Value Source: Averaged Metar Reports

Daily Weather History Graph

Daily Weather History Graph

Search for Another Location

Airport or City:

Astronomy

Nov. 14, 2012 Rise Set
Actual Time 6:06 AM EET 5:00 PM EET
Civil Twilight 5:42 AM EET 5:24 PM EET
Nautical Twilight 5:14 AM EET 5:52 PM EET
Astronomical Twilight 4:46 AM EET 6:20 PM EET
Moon 6:27 AM EET (11/14) 5:34 PM EET (11/14)
Length of Visible Light 11h 42m
Length of Day
10h 54m
New Moon, 0% of the Moon is Illuminated
Nov 14
New Moon
Nov 20
First Quarter
Nov 28
Full
Dec 6
Last Quarter
Dec 13
New

Hourly Weather History & Observations

Time (EET) Temp. Heat Index Dew Point Humidity Pressure Visibility Wind Dir Wind Speed Gust Speed Precip Events Conditions
12:00 AM 66.2 °F - 51.8 °F 60% 29.98 in - Calm Calm - N/A   Clear
1:00 AM 60.8 °F - 51.8 °F 72% 29.98 in - Calm Calm - N/A   Clear
2:00 AM 63 °F - 51 °F 55% 29.98 in 6 mi Calm Calm - -  
2:00 AM 62.6 °F - 50.0 °F 63% 29.98 in - Calm Calm - N/A   Clear
3:00 AM 60.8 °F - 50.0 °F 68% 29.98 in - South 2.3 mph - N/A   Clear
4:00 AM 57.2 °F - 48.2 °F 72% 29.98 in - Calm Calm - N/A   Clear
5:00 AM 57.2 °F - 48.2 °F 72% 29.98 in - Calm Calm - N/A   Clear
6:00 AM 57.2 °F - 48.2 °F 72% 29.98 in - SSE 2.3 mph - N/A   Clear
7:00 AM 60.8 °F - 50.0 °F 68% 30.01 in - Calm Calm - N/A   Clear
8:00 AM 65 °F - 53 °F 55% 30.02 in 6 mi Calm Calm - -  
8:00 AM 66.2 °F - 51.8 °F 60% 30.01 in - Calm Calm - N/A   Clear
9:00 AM 68.0 °F - 55.4 °F 64% 30.04 in - Calm Calm - N/A   Clear
10:00 AM 71.6 °F - 57.2 °F 60% 30.01 in - Calm Calm - N/A   Clear
11:00 AM 77.0 °F - 59.0 °F 54% 30.01 in - Calm Calm - N/A   Clear
12:00 PM 78.8 °F - 59.0 °F 51% 29.98 in - Calm Calm - N/A   Clear
1:00 PM 80.6 °F 81.1 °F 59.0 °F 48% 29.95 in - Calm Calm - N/A   Clear
2:00 PM 81 °F - 58 °F 35% 29.92 in 6 mi NW 3.5 mph - -  
2:00 PM 80.6 °F 80.8 °F 57.2 °F 45% 29.92 in - NW 3.5 mph - N/A   Clear
3:00 PM 82.4 °F 82.5 °F 59.0 °F 45% 29.92 in - NW 4.6 mph - N/A   Clear
4:00 PM 80.6 °F 81.1 °F 59.0 °F 48% 29.92 in - NNW 3.5 mph - N/A   Clear
5:00 PM 78.8 °F - 57.2 °F 47% 29.92 in - Calm Calm - N/A   Clear
6:00 PM 75.2 °F - 57.2 °F 53% 29.92 in - Calm Calm - N/A   Clear
7:00 PM 71.6 °F - 57.2 °F 60% 29.95 in - Calm Calm - N/A   Clear
8:00 PM 72 °F - 56 °F 48% 29.95 in 6 mi Calm Calm - -  
8:00 PM 73.4 °F - 57.2 °F 57% 29.95 in - Calm Calm - N/A   Clear
9:00 PM 69.8 °F - 53.6 °F 56% 29.95 in - SSE 2.3 mph - N/A   Clear
10:00 PM 71.6 °F - 55.4 °F 57% 29.98 in - East 2.3 mph - N/A   Clear
11:00 PM 68.0 °F - 55.4 °F 64% 29.98 in - Calm Calm - N/A   Clear